Content
SEND FEEDBACK

Daily
Averages
Monthly
Summary
United States of America

ST. LOUIS - SAINT LOUIS UNIVERSITY, MISSOURI


Home > North America > United States > Missouri
Elevation: 580 feet     Latitude: 38 38N     Longitude: 090 14W

WEATHER
 
SELECT A DAY
Number of Records: 186,092;   Date Range: 1/1/95 - 7/29/14
 
SHARE

PRINT THIS DATA

[ ← Previous Day ]
WEATHER ALMANAC - MARCH 1, 2013
[ Next Day → ]
[ °C ]   °F
Weather ElementAverageHighLow
Temperature31.4 °F34 °F (2:53 pm)28.4 °F (11:20 pm)
Dewpoint26.7 °F28.4 °F (4:50 am)23 °F (11:53 pm)
Humidity82.5 %93 % (4:50 am)75 % (12:44 pm)
Barometer30.13 in30.21 in (9:53 pm)30.08 in (4:25 am)
Wind Speed10.1 mph15 mph (11:20 pm)
Weather ElementAverage
Visibility5 mi
Wind DirectionNNW (326.1 °)

Weather ElementTotal
Precipitation0.02 in
Heating Degree Days33.8 (Base 65)
Averaged from 44 records on March 1, 2013
WEATHER CONDITIONS BREAKOUT
WIND DIRECTION BREAKOUT
WEATHER BY HOUR - MARCH 1, 2013
[ °C ]   °F
Local TimeTemperatureDewpointHumidityBarometerVisibilityWind DirectionWind SpeedGust SpeedPrecipitationEventsConditions
1:53 AM32.0 °F28.0 °F85 %30.10 in7.0 miNW (310°)10.4 mphOvercast
2:53 AM32.0 °F28.0 °F85 %30.09 in5.0 miNW (310°)10.4 mphOvercast
3:53 AM30.9 °F27.0 °F85 %30.09 in4.0 miNW (310°)8.1 mph0.00 inSnowLight Snow
4:25 AM30.2 °F26.6 °F86 %30.08 in4.0 miNW (310°)9.2 mph0.00 inSnowLight Snow
4:50 AM30.2 °F28.4 °F93 %30.08 in3.0 miWNW (300°)5.8 mph0.00 inSnowLight Snow
4:53 AM30.9 °F28.0 °F89 %30.09 in3.0 miNW (310°)9.2 mph0.00 inSnowLight Snow
5:50 AM30.2 °F26.6 °F86 %30.09 in3.0 miNW (310°)9.2 mph0.00 inSnowLight Snow
5:53 AM30.9 °F27.0 °F85 %30.10 in3.0 miNW (310°)6.9 mph0.00 inSnowLight Snow
6:04 AM30.2 °F26.6 °F86 %30.09 in2.5 miNW (310°)8.1 mph0.00 inSnowLight Snow
6:30 AM30.2 °F26.6 °F86 %30.09 in1.8 miNW (310°)6.9 mph0.00 inSnowLight Snow
6:38 AM30.2 °F28.4 °F93 %30.09 in2.5 miNW (320°)6.9 mph0.00 inSnowLight Snow
6:53 AM30.0 °F27.0 °F88 %30.11 in1.8 miNW (320°)8.1 mph0.00 inSnowLight Snow
7:00 AM30.2 °F26.6 °F86 %30.09 in2.0 miNW (310°)9.2 mph0.00 inSnowLight Snow
7:53 AM30.0 °F27.0 °F88 %30.13 in2.0 miNW (310°)9.2 mph0.00 inSnowLight Snow
8:53 AM30.9 °F27.0 °F85 %30.14 in2.0 miNW (310°)10.4 mph0.00 inSnowLight Snow
9:11 AM30.2 °F26.6 °F86 %30.12 in1.2 miNW (320°)9.2 mph0.00 inSnowLight Snow
9:32 AM30.2 °F26.6 °F86 %30.12 in3.0 miNW (310°)9.2 mph0.01 inSnowLight Snow
9:53 AM30.9 °F27.0 °F85 %30.14 in3.0 miNW (320°)10.4 mph0.01 inOvercast
10:30 AM32.0 °F26.6 °F80 %30.13 in2.5 miNNW (330°)9.2 mph0.00 inSnowLight Snow
10:45 AM32.0 °F26.6 °F80 %30.13 in4.0 miNW (320°)10.4 mph0.00 inHaze
10:53 AM32.0 °F27.0 °F82 %30.14 in3.0 miWNW (300°)10.4 mph0.00 inHaze
11:31 AM33.8 °F28.4 °F81 %30.13 in2.5 miNNW (330°)8.1 mph0.00 inSnowLight Snow
11:42 AM33.8 °F28.4 °F81 %30.13 in4.0 miNW (310°)9.2 mph0.00 inHaze
11:53 AM33.1 °F28.0 °F82 %30.14 in5.0 miNNW (330°)8.1 mph0.00 inHaze
12:20 PM33.8 °F28.4 °F81 %30.12 in9.0 miNW (320°)9.2 mphOvercast
12:27 PM33.8 °F28.4 °F81 %30.12 in9.0 miNNW (330°)8.1 mphOvercast
12:44 PM33.8 °F26.6 °F75 %30.12 in10.0 miNNW (340°)10.4 mphOvercast
12:53 PM33.1 °F27.0 °F78 %30.13 in10.0 miNNW (340°)9.2 mphOvercast
1:53 PM33.1 °F27.0 °F78 %30.12 in10.0 miNNW (340°)10.4 mphOvercast
2:53 PM34.0 °F27.0 °F75 %30.13 in8.0 miNNW (340°)12.7 mph0.00 inSnowLight Snow
3:24 PM33.8 °F26.6 °F75 %30.12 in3.0 miNNW (340°)13.8 mph0.00 inSnowLight Snow
3:31 PM33.8 °F26.6 °F75 %30.12 in2.0 miNorth (350°)11.5 mph0.00 inSnowLight Snow
3:44 PM33.8 °F26.6 °F75 %30.13 in4.0 miNNW (330°)10.4 mph0.00 inSnowLight Snow
3:53 PM33.1 °F27.0 °F78 %30.14 in7.0 miNNW (330°)12.7 mph0.00 inOvercast
5:53 PM32.0 °F25.0 °F75 %30.17 in4.0 miNorth (350°)10.4 mphSnowLight Snow
6:25 PM30.2 °F26.6 °F86 %30.17 in4.0 miNNW (340°)10.4 mph0.00 inSnowLight Snow
6:53 PM30.9 °F25.0 °F79 %30.19 in4.0 miNorth (350°)13.8 mph0.00 inSnowLight Snow
7:53 PM30.0 °F26.1 °F85 %30.19 in5.0 miNorth (360°)10.4 mph0.00 inSnowLight Snow
8:53 PM30.0 °F25.0 °F82 %30.20 in9.0 miNNW (340°)12.7 mph0.00 inOvercast
9:53 PM30.0 °F25.0 °F82 %30.21 in6.0 miNorth (350°)12.7 mph0.00 inSnowLight Snow
10:09 PM30.2 °F24.8 °F80 %30.20 in10.0 miNorth (350°)12.7 mph0.00 inOvercast
10:53 PM30.0 °F24.1 °F79 %30.21 in10.0 miNNW (340°)12.7 mph0.00 inOvercast
11:20 PM28.4 °F24.8 °F86 %30.20 in10.0 miNNW (340°)15.0 mphOvercast
11:53 PM28.9 °F23.0 °F78 %30.21 in10.0 miNNW (340°)12.7 mphOvercast
Hourly data recorded from KCPS, located miles away from St. Louis - Saint Louis University, Missouri







STORIES FROM OUR PARTNERS